Weather Roundup
Issued by NWS Chicago, IL

Home | Current Version | Previous Version | Text Only | Print | Product List | Glossary Off
Versions: 1 2 3 4 5 6 7 8 9 10 11 12 13 14 15 16 17 18 19 20 21 22 23 24 25 26 27 28 29 30 31 32 33 34 35 36 37 38 39 40 41 42 43 44 45 46 47 48 49 50

000
NZUS59 KLOT 291608
HRRLOT

CHICAGO AREA WEATHER ROUNDUP
NATIONAL WEATHER SERVICE CHICAGO/ROMEOVILLE IL
1100 AM CDT FRI APR 29 2016

NOTE: "FAIR" INDICATES FEW OR NO CLOUDS BELOW 12,000 FEET WITH NO
SIGNIFICANT WEATHER AND/OR OBSTRUCTIONS TO VISIBILITY.

* THESE STATIONS ARE NOT UNDER NWS QUALITY CONTROL. THEY ALSO MAY NOT
  REPORT WEATHER SUCH AS PRECIPITATION OR FOG.

ILZ005-006-012>014-019>023-291700-
NORTHEAST ILLINOIS

CITY           SKY/WX    TMP DP  RH WIND       PRES   REMARKS
OHARE          CLOUDY    44  39  82 NE12      30.10S
MIDWAY         CLOUDY    48  39  71 N10       30.09F
AURORA         CLOUDY    47  40  76 NE13      30.09F
LANSING*       CLOUDY    47  40  77 N10       30.09F
JOLIET*        CLOUDY    47  43  87 NE10      30.09F FOG
WAUKEGAN       CLOUDY    43  39  86 NE6       30.12R
DUPAGE AIRPORT CLOUDY    45  38  76 N10       30.09F
WHEELING       CLOUDY    43  39  86 NE6       30.14R
KANKAKEE*      CLOUDY    49  43  79 N5        30.09S
MORRIS*        CLOUDY    47  42  82 NE3       30.09R
LEWIS AIRPORT* CLOUDY    45  40  83 N12       30.09F
$$

WIZ051-052-058>065-066-070>072-291700-
SOUTHEAST WISCONSIN

CITY           SKY/WX    TMP DP  RH WIND       PRES   REMARKS
MILWAUKEE      CLOUDY    41  36  82 NE9       30.14R
KENOSHA*       CLOUDY    43  38  82 N10       30.13R
RACINE*        CLOUDY    44  38  79 NE12      30.15R
BURLINGTON     CLOUDY    41  37  84 NE9       30.12R
WAUKESHA       CLOUDY    39  36  87 NE7       30.14R
$$

INZ001>003-010>013-019-020-291700-
NORTHWEST INDIANA

CITY           SKY/WX    TMP DP  RH WIND       PRES   REMARKS
GARY*          CLOUDY    48  46  93 N12       30.10F FOG
MICHIGAN CITY* NOT AVBL
RENSSELAER*    NOT AVBL
VALPARAISO     CLOUDY    47  41  80 NW10G17   30.08F
$$

LMZ740>746-291700-
SOUTHERN LAKE MICHIGAN

STATION/POSITION TIME  SKY/WX   TEMP WIND        PRES    VSBY
                                AIR  DIR/SP/G
                 (UTC)          (F)  (DEG/KT/KT) (MB)    (MI)
HARRISON CRIB    1500            42  350/ 10/ 11   N/A
BURNHAM HARBOR   1600            44  360/ 14       N/A
CALUMET HARBOR   1500            43  330/  8/ 12 1019.3R
BURNS HARBOR     1517            42  320/ 10/ 14 1020.0R
MICHIGAN CITY    1500            42  270/ 12/ 13   N/A
$$

ABBREVIATIONS USED IN REMARKS
   TC - TEMPERATURE IN CELSIUS
  WCI - WIND CHILL INDEX
   HX - HEAT INDEX
  VSB - VISIBILITY
$$



USA.gov is the U.S. government's official web portal to all federal, state and local government web resources and services.